,,,PA_Meas_PMT16A,,PR_Meas_QMR101_102,,RH_Meas_QMH101,,SR_Meas_QMS101,,TA_Meas_QMH101,,GenWind,,GenWind,
date,time,status,PA,status,PR,status,RH,status,SR,status,TA,status,DirAvg,status,SpdAvg,
2011-11-27, 00:00:04,VALID,997.594,VALID,0,VALID,94.5691,VALID,0,VALID,23.1744,VALID,58,VALID,0.369531,
2011-11-27, 00:01:04,VALID,997.588,VALID,0,VALID,94.5768,VALID,0,VALID,23.2134,VALID,124,VALID,0.690625,
2011-11-27, 00:02:04,VALID,997.575,VALID,0,VALID,94.531,VALID,0,VALID,23.311,VALID,166,VALID,1.18438,
2011-11-27, 00:03:04,VALID,997.604,VALID,0,VALID,94.5081,VALID,0,VALID,23.35,VALID,170,VALID,1.07344,
2011-11-27, 00:04:04,VALID,997.563,VALID,0,VALID,94.5081,VALID,0,VALID,23.3695,VALID,188,VALID,0.989062,
2011-11-27, 00:05:04,VALID,997.564,VALID,0,VALID,94.5157,VALID,0,VALID,23.3677,VALID,182,VALID,0.579687,
2011-11-27, 00:06:04,VALID,997.537,VALID,0,VALID,94.531,VALID,0,VALID,23.35,VALID,182,VALID,0.415625,
2011-11-27, 00:07:04,VALID,997.535,VALID,0,VALID,94.5234,VALID,0,VALID,23.311,VALID,182,VALID,0.359766,
2011-11-27, 00:08:04,VALID,997.509,VALID,0,VALID,94.5386,VALID,0,VALID,23.2702,VALID,182,VALID,0.219922,
2011-11-27, 00:09:04,VALID,997.541,VALID,0,VALID,94.5691,VALID,0,VALID,23.2719,VALID,178,VALID,0.386719,
2011-11-27, 00:10:04,VALID,997.566,VALID,0,VALID,94.5997,VALID,0,VALID,23.2134,VALID,174,VALID,0.693359,
2011-11-27, 00:11:04,VALID,997.521,VALID,0,VALID,94.592,VALID,0,VALID,23.2134,VALID,171,VALID,0.572266,
2011-11-27, 00:12:04,VALID,997.55,VALID,0,VALID,94.5997,VALID,0,VALID,23.1744,VALID,168,VALID,0.490625,
2011-11-27, 00:13:04,VALID,997.536,VALID,0,VALID,94.6149,VALID,0,VALID,23.1549,VALID,85,VALID,0.793359,
2011-11-27, 00:14:04,VALID,997.508,VALID,0,VALID,94.6226,VALID,0,VALID,23.1354,VALID,64,VALID,0.792578,
2011-11-27, 00:15:04,VALID,997.484,VALID,0,VALID,94.6378,VALID,0,VALID,23.0769,VALID,63,VALID,0.513281,
2011-11-27, 00:16:04,VALID,997.461,VALID,0,VALID,94.6531,VALID,0,VALID,22.9988,VALID,63,VALID,0.305469,
2011-11-27, 00:17:04,VALID,997.433,VALID,0,VALID,94.6454,VALID,0,VALID,22.9988,VALID,63,VALID,0.727734,
2011-11-27, 00:18:04,VALID,997.423,VALID,0,VALID,94.6378,VALID,0,VALID,22.9776,VALID,63,VALID,0.502344,
2011-11-27, 00:19:04,VALID,997.375,VALID,0,VALID,94.6302,VALID,0,VALID,22.9581,VALID,63,VALID,0.494922,
2011-11-27, 00:20:04,VALID,997.36,VALID,0,VALID,94.6302,VALID,0,VALID,22.9598,VALID,63,VALID,0.283594,
2011-11-27, 00:21:04,VALID,997.341,VALID,0,VALID,94.6378,VALID,0,VALID,22.9598,VALID,63,VALID,0.0234375,
2011-11-27, 00:22:04,VALID,997.357,VALID,0,VALID,94.6454,VALID,0,VALID,22.9208,VALID,63,VALID,0,
2011-11-27, 00:23:04,VALID,997.322,VALID,0,VALID,94.6378,VALID,0,VALID,22.9403,VALID,63,VALID,0.00195313,
2011-11-27, 00:24:04,VALID,997.313,VALID,0,VALID,94.6378,VALID,0,VALID,22.9793,VALID,63,VALID,0.350781,
2011-11-27, 00:25:04,VALID,997.248,VALID,0,VALID,94.6073,VALID,0,VALID,22.9793,VALID,63,VALID,0.415234,
2011-11-27, 00:26:04,VALID,997.278,VALID,0,VALID,94.6149,VALID,0,VALID,22.9776,VALID,63,VALID,0.00195313,
2011-11-27, 00:27:04,VALID,997.25,VALID,0,VALID,94.6302,VALID,0,VALID,22.9988,VALID,63,VALID,0.245312,
2011-11-27, 00:28:04,VALID,997.233,VALID,0,VALID,94.6302,VALID,0,VALID,22.9793,VALID,63,VALID,0.454688,
2011-11-27, 00:29:04,VALID,997.272,VALID,0,VALID,94.6149,VALID,0,VALID,23.0378,VALID,63,VALID,0.630859,
2011-11-27, 00:30:04,VALID,997.222,VALID,0,VALID,94.5997,VALID,0,VALID,23.0769,VALID,63,VALID,0.775,
2011-11-27, 00:31:04,VALID,997.204,VALID,0,VALID,94.5691,VALID,0,VALID,23.1354,VALID,63,VALID,0.771875,
2011-11-27, 00:32:04,VALID,997.17,VALID,0,VALID,94.5462,VALID,0.104696,VALID,23.1531,VALID,63,VALID,0.758203,
2011-11-27, 00:33:04,VALID,997.142,VALID,0,VALID,94.5844,VALID,0,VALID,23.1744,VALID,63,VALID,0.686719,
2011-11-27, 00:34:04,VALID,997.14,VALID,0,VALID,94.6073,VALID,0,VALID,23.1354,VALID,63,VALID,0.494141,
2011-11-27, 00:35:04,VALID,997.12,VALID,0,VALID,94.6454,VALID,0,VALID,23.0964,VALID,63,VALID,0.179688,
2011-11-27, 00:36:04,VALID,997.116,VALID,0,VALID,94.6226,VALID,0,VALID,23.0573,VALID,63,VALID,0,
2011-11-27, 00:37:04,VALID,997.088,VALID,0,VALID,94.6531,VALID,0,VALID,23.0183,VALID,63,VALID,0,
2011-11-27, 00:38:04,VALID,997.071,VALID,0,VALID,94.6531,VALID,0,VALID,22.9598,VALID,63,VALID,0,
2011-11-27, 00:39:04,VALID,997.087,VALID,0,VALID,94.6531,VALID,0,VALID,22.8995,VALID,63,VALID,0,
2011-11-27, 00:40:04,VALID,997.025,VALID,0,VALID,94.6531,VALID,0,VALID,22.9403,VALID,63,VALID,0,
2011-11-27, 00:41:04,VALID,997.026,VALID,0,VALID,94.6683,VALID,0,VALID,22.8995,VALID,63,VALID,0,
2011-11-27, 00:42:04,VALID,996.979,VALID,0,VALID,94.6531,VALID,0,VALID,22.9208,VALID,63,VALID,0,
2011-11-27, 00:43:04,VALID,996.99,VALID,0,VALID,94.676,VALID,0.104696,VALID,22.8995,VALID,63,VALID,0.396094,
2011-11-27, 00:44:04,VALID,996.941,VALID,0,VALID,94.6607,VALID,0,VALID,22.9013,VALID,63,VALID,0.314453,
2011-11-27, 00:45:04,VALID,996.901,VALID,0,VALID,94.676,VALID,0,VALID,22.841,VALID,63,VALID,0.437891,
2011-11-27, 00:46:04,VALID,996.895,VALID,0,VALID,94.676,VALID,0,VALID,22.802,VALID,63,VALID,0.558203,
2011-11-27, 00:47:04,VALID,996.912,VALID,0,VALID,94.6683,VALID,0,VALID,22.8232,VALID,63,VALID,0.554688,
2011-11-27, 00:48:04,VALID,996.878,VALID,0,VALID,94.6912,VALID,0,VALID,22.8232,VALID,63,VALID,0.389062,
2011-11-27, 00:49:04,VALID,996.849,VALID,0,VALID,94.6836,VALID,0,VALID,22.7825,VALID,63,VALID,0.298438,
2011-11-27, 00:50:04,VALID,996.872,VALID,0,VALID,94.6912,VALID,0,VALID,22.763,VALID,63,VALID,0.475,
2011-11-27, 00:51:04,VALID,996.833,VALID,0,VALID,94.6988,VALID,0,VALID,22.7647,VALID,63,VALID,0.548437,
2011-11-27, 00:52:04,VALID,996.82,VALID,0,VALID,94.676,VALID,0,VALID,22.763,VALID,63,VALID,0.459375,
2011-11-27, 00:53:04,VALID,996.785,VALID,0,VALID,94.6836,VALID,0,VALID,22.724,VALID,63,VALID,0.576172,
2011-11-27, 00:54:04,VALID,996.785,VALID,0,VALID,94.6912,VALID,0,VALID,22.7045,VALID,78,VALID,0.900391,
2011-11-27, 00:55:04,VALID,996.767,VALID,0,VALID,94.6531,VALID,0,VALID,22.763,VALID,83,VALID,0.945313,
2011-11-27, 00:56:04,VALID,996.816,VALID,0,VALID,94.6302,VALID,0.104696,VALID,22.8427,VALID,81,VALID,0.929297,
2011-11-27, 00:57:04,VALID,996.804,VALID,0,VALID,94.6454,VALID,0,VALID,22.8427,VALID,82,VALID,0.691406,
2011-11-27, 00:58:04,VALID,996.752,VALID,0,VALID,94.6607,VALID,0,VALID,22.8215,VALID,86,VALID,0.921875,
2011-11-27, 00:59:04,VALID,996.776,VALID,0,VALID,94.676,VALID,0,VALID,22.802,VALID,75,VALID,0.596875,
2011-11-27, 01:00:04,VALID,996.739,VALID,0,VALID,94.6912,VALID,0,VALID,22.7257,VALID,46,VALID,0.741797,
2011-11-27, 01:01:04,VALID,996.708,VALID,0,VALID,94.7141,VALID,0,VALID,22.6672,VALID,40,VALID,0.607813,
2011-11-27, 01:02:04,VALID,996.709,VALID,0,VALID,94.737,VALID,0.104696,VALID,22.6282,VALID,32,VALID,0.683984,
2011-11-27, 01:03:04,VALID,996.742,VALID,0,VALID,94.7217,VALID,0,VALID,22.6477,VALID,32,VALID,0.555078,
2011-11-27, 01:04:04,VALID,996.706,VALID,0,VALID,94.7065,VALID,0.104696,VALID,22.6867,VALID,16,VALID,0.632813,
2011-11-27, 01:05:04,VALID,996.691,VALID,0,VALID,94.7065,VALID,0,VALID,22.685,VALID,16,VALID,0.300391,
2011-11-27, 01:06:04,VALID,996.709,VALID,0,VALID,94.7065,VALID,0,VALID,22.685,VALID,16,VALID,0.287891,
2011-11-27, 01:07:04,VALID,996.681,VALID,0,VALID,94.6912,VALID,0,VALID,22.6655,VALID,16,VALID,0.394922,
2011-11-27, 01:08:04,VALID,996.662,VALID,0,VALID,94.6988,VALID,0,VALID,22.6867,VALID,16,VALID,0.547656,
2011-11-27, 01:09:04,VALID,996.635,VALID,0,VALID,94.6836,VALID,0,VALID,22.685,VALID,16,VALID,0.835938,
2011-11-27, 01:10:04,VALID,996.598,VALID,0,VALID,94.6988,VALID,0,VALID,22.6867,VALID,17,VALID,0.854688,
2011-11-27, 01:11:04,VALID,996.595,VALID,0,VALID,94.6836,VALID,0,VALID,22.6867,VALID,34,VALID,0.800781,
2011-11-27, 01:12:04,VALID,996.603,VALID,0,VALID,94.6836,VALID,0,VALID,22.6672,VALID,38,VALID,0.773047,
2011-11-27, 01:13:04,VALID,996.574,VALID,0,VALID,94.6912,VALID,0,VALID,22.6477,VALID,38,VALID,0.6,
2011-11-27, 01:14:04,VALID,996.553,VALID,0,VALID,94.6988,VALID,0.104696,VALID,22.646,VALID,38,VALID,0.543359,
2011-11-27, 01:15:04,VALID,996.543,VALID,0,VALID,94.6988,VALID,0,VALID,22.6655,VALID,38,VALID,0.422656,
2011-11-27, 01:16:04,VALID,996.55,VALID,0,VALID,94.6836,VALID,0,VALID,22.6477,VALID,38,VALID,0.0539063,
2011-11-27, 01:17:04,VALID,996.557,VALID,0,VALID,94.6988,VALID,0,VALID,22.6282,VALID,38,VALID,0,
2011-11-27, 01:18:04,VALID,996.531,VALID,0,VALID,94.6836,VALID,0,VALID,22.6087,VALID,38,VALID,0,
2011-11-27, 01:19:04,VALID,996.497,VALID,0,VALID,94.6912,VALID,0,VALID,22.6282,VALID,38,VALID,0.492969,
2011-11-27, 01:20:04,VALID,996.481,VALID,0,VALID,94.676,VALID,0,VALID,22.6867,VALID,38,VALID,0.680078,
2011-11-27, 01:21:04,VALID,996.46,VALID,0,VALID,94.6988,VALID,0,VALID,22.6672,VALID,38,VALID,0.595312,
2011-11-27, 01:22:04,VALID,996.43,VALID,0,VALID,94.6988,VALID,0,VALID,22.646,VALID,360,VALID,0.946094,
2011-11-27, 01:23:04,VALID,996.425,VALID,0,VALID,94.676,VALID,0,VALID,22.6655,VALID,351,VALID,0.929688,
2011-11-27, 01:24:04,VALID,996.42,VALID,0,VALID,94.6912,VALID,0.104696,VALID,22.6655,VALID,351,VALID,0.526172,
2011-11-27, 01:25:04,VALID,996.433,VALID,0,VALID,94.6988,VALID,0,VALID,22.6477,VALID,351,VALID,0.398047,
2011-11-27, 01:26:04,VALID,996.435,VALID,0,VALID,94.6988,VALID,0,VALID,22.6087,VALID,351,VALID,0.404687,
2011-11-27, 01:27:04,VALID,996.421,VALID,0,VALID,94.6988,VALID,0,VALID,22.6087,VALID,351,VALID,0.29375,
2011-11-27, 01:28:04,VALID,996.422,VALID,0,VALID,94.7141,VALID,0,VALID,22.5679,VALID,351,VALID,0.273828,
2011-11-27, 01:29:04,VALID,996.438,VALID,0,VALID,94.7141,VALID,0,VALID,22.5501,VALID,351,VALID,0.188281,
2011-11-27, 01:30:04,VALID,996.413,VALID,0,VALID,94.7065,VALID,0,VALID,22.5501,VALID,351,VALID,0,
2011-11-27, 01:31:04,VALID,996.418,VALID,0,VALID,94.7141,VALID,0,VALID,22.5501,VALID,351,VALID,0,
2011-11-27, 01:32:04,VALID,996.396,VALID,0,VALID,94.7294,VALID,0,VALID,22.5289,VALID,351,VALID,0,
2011-11-27, 01:33:04,VALID,996.39,VALID,0,VALID,94.7141,VALID,0.104696,VALID,22.5696,VALID,351,VALID,0,
2011-11-27, 01:34:04,VALID,996.402,VALID,0,VALID,94.6988,VALID,0.104696,VALID,22.5696,VALID,351,VALID,0,
2011-11-27, 01:35:04,VALID,996.389,VALID,0,VALID,94.676,VALID,0,VALID,22.5892,VALID,351,VALID,0.464844,
2011-11-27, 01:36:04,VALID,996.386,VALID,0,VALID,94.6912,VALID,0,VALID,22.5892,VALID,351,VALID,0.420703,
2011-11-27, 01:37:04,VALID,996.414,VALID,0,VALID,94.6912,VALID,0,VALID,22.5892,VALID,351,VALID,0.489453,
2011-11-27, 01:38:04,VALID,996.378,VALID,0,VALID,94.6988,VALID,0,VALID,22.6087,VALID,351,VALID,0.523047,
2011-11-27, 01:39:04,VALID,996.375,VALID,0,VALID,94.6912,VALID,0,VALID,22.6087,VALID,351,VALID,0.558594,
2011-11-27, 01:40:05,VALID,996.368,VALID,0,VALID,94.6988,VALID,0,VALID,22.6087,VALID,351,VALID,0.705078,
2011-11-27, 01:41:05,VALID,996.393,VALID,0,VALID,94.7141,VALID,0,VALID,22.6282,VALID,358,VALID,0.858203,
2011-11-27, 01:42:05,VALID,996.351,VALID,0,VALID,94.7065,VALID,0,VALID,22.5892,VALID,9,VALID,0.969531,
2011-11-27, 01:43:05,VALID,996.354,VALID,0,VALID,94.6988,VALID,0,VALID,22.5696,VALID,9,VALID,0.840234,
2011-11-27, 01:44:05,VALID,996.372,VALID,0,VALID,94.7141,VALID,0,VALID,22.5306,VALID,9,VALID,0.457422,
2011-11-27, 01:45:05,VALID,996.363,VALID,0,VALID,94.7294,VALID,0,VALID,22.4704,VALID,9,VALID,0,
2011-11-27, 01:46:05,VALID,996.355,VALID,0,VALID,94.7294,VALID,0,VALID,22.4314,VALID,9,VALID,0.0667969,
2011-11-27, 01:47:05,VALID,996.314,VALID,0,VALID,94.7217,VALID,0,VALID,22.4314,VALID,9,VALID,0,
2011-11-27, 01:48:05,VALID,996.311,VALID,0,VALID,94.7294,VALID,0,VALID,22.5111,VALID,9,VALID,0,
2011-11-27, 01:49:05,VALID,996.289,VALID,0,VALID,94.7217,VALID,0,VALID,22.5501,VALID,9,VALID,0,
2011-11-27, 01:50:05,VALID,996.279,VALID,0,VALID,94.676,VALID,0,VALID,22.5501,VALID,9,VALID,0,
2011-11-27, 01:51:05,VALID,996.277,VALID,0,VALID,94.6912,VALID,0,VALID,22.5306,VALID,9,VALID,0,
2011-11-27, 01:52:05,VALID,996.258,VALID,0,VALID,94.7065,VALID,0,VALID,22.5501,VALID,9,VALID,0,
2011-11-27, 01:53:05,VALID,996.249,VALID,0,VALID,94.7141,VALID,0,VALID,22.5306,VALID,9,VALID,0,
2011-11-27, 01:54:05,VALID,996.282,VALID,0,VALID,94.6912,VALID,0,VALID,22.5306,VALID,9,VALID,0,
2011-11-27, 01:55:05,VALID,996.304,VALID,0,VALID,94.7141,VALID,0,VALID,22.5111,VALID,9,VALID,0,
2011-11-27, 01:56:05,VALID,996.261,VALID,0,VALID,94.737,VALID,0,VALID,22.4916,VALID,9,VALID,0,
2011-11-27, 01:57:05,VALID,996.212,VALID,0,VALID,94.676,VALID,0,VALID,22.5289,VALID,55,VALID,0,
2011-11-27, 01:58:05,VALID,996.226,VALID,0,VALID,94.676,VALID,0,VALID,22.5892,VALID,55,VALID,0,
2011-11-27, 01:59:05,VALID,996.227,VALID,0,VALID,94.6988,VALID,0,VALID,22.5696,VALID,55,VALID,0,
2011-11-27, 02:00:05,VALID,996.229,VALID,0,VALID,94.7294,VALID,0,VALID,22.4704,VALID,55,VALID,0,
2011-11-27, 02:01:05,VALID,996.214,VALID,0,VALID,94.7217,VALID,0,VALID,22.5111,VALID,55,VALID,0,
2011-11-27, 02:02:05,VALID,996.139,VALID,0,VALID,94.7141,VALID,0,VALID,22.4916,VALID,55,VALID,0,
2011-11-27, 02:03:05,VALID,996.107,VALID,0,VALID,94.7141,VALID,0,VALID,22.4509,VALID,55,VALID,0,
2011-11-27, 02:04:05,VALID,996.092,VALID,0,VALID,94.6988,VALID,0,VALID,22.5289,VALID,55,VALID,0,
2011-11-27, 02:05:05,VALID,996.084,VALID,0,VALID,94.6531,VALID,0,VALID,22.6264,VALID,55,VALID,0,
2011-11-27, 02:06:05,VALID,996.088,VALID,0,VALID,94.6607,VALID,0,VALID,22.6672,VALID,96,VALID,0,
2011-11-27, 02:07:05,VALID,996.066,VALID,0,VALID,94.7065,VALID,0,VALID,22.5696,VALID,195,VALID,0.301953,
2011-11-27, 02:08:05,VALID,996.061,VALID,0,VALID,94.7065,VALID,0,VALID,22.646,VALID,202,VALID,0.946094,
2011-11-27, 02:09:05,VALID,996.023,VALID,0,VALID,94.6378,VALID,0,VALID,22.7647,VALID,202,VALID,0.567969,
2011-11-27, 02:10:05,VALID,996.018,VALID,0,VALID,94.6454,VALID,0.104696,VALID,22.7435,VALID,195,VALID,0.5875,
2011-11-27, 02:11:05,VALID,996.032,VALID,0,VALID,94.6378,VALID,0,VALID,22.7842,VALID,168,VALID,0.899609,
2011-11-27, 02:12:05,VALID,996.006,VALID,0,VALID,94.6531,VALID,0,VALID,22.8232,VALID,168,VALID,0.872656,
2011-11-27, 02:13:05,VALID,996.009,VALID,0,VALID,94.6378,VALID,0,VALID,22.8623,VALID,168,VALID,0.822266,
2011-11-27, 02:14:05,VALID,995.974,VALID,0,VALID,94.6302,VALID,0,VALID,22.8623,VALID,167,VALID,0.605859,
2011-11-27, 02:15:05,VALID,995.978,VALID,0,VALID,94.6683,VALID,0,VALID,22.8605,VALID,167,VALID,0.590625,
2011-11-27, 02:16:05,VALID,995.969,VALID,0,VALID,94.6531,VALID,0,VALID,22.8427,VALID,167,VALID,0.934375,
2011-11-27, 02:17:05,VALID,995.948,VALID,0,VALID,94.6302,VALID,0,VALID,22.8623,VALID,167,VALID,0.455859,
2011-11-27, 02:18:05,VALID,995.929,VALID,0,VALID,94.6378,VALID,0.104696,VALID,22.8427,VALID,167,VALID,0,
2011-11-27, 02:19:05,VALID,995.95,VALID,0,VALID,94.6149,VALID,0,VALID,22.8215,VALID,167,VALID,0,
2011-11-27, 02:20:05,VALID,995.97,VALID,0,VALID,94.592,VALID,0,VALID,22.8623,VALID,167,VALID,0,
2011-11-27, 02:21:05,VALID,995.955,VALID,0,VALID,94.5997,VALID,0,VALID,22.8232,VALID,109,VALID,0.991406,
2011-11-27, 02:22:05,VALID,995.979,VALID,0,VALID,94.5691,VALID,0,VALID,22.7842,VALID,92,VALID,1.20781,
2011-11-27, 02:23:05,VALID,995.927,VALID,0,VALID,94.5615,VALID,0,VALID,22.763,VALID,88,VALID,1.24531,
2011-11-27, 02:24:05,VALID,995.932,VALID,0,VALID,94.5462,VALID,0,VALID,22.7452,VALID,65,VALID,1.23984,
2011-11-27, 02:25:05,VALID,995.88,VALID,0,VALID,94.5081,VALID,0,VALID,22.6672,VALID,52,VALID,1.29688,
2011-11-27, 02:26:05,VALID,995.903,VALID,0,VALID,94.4928,VALID,0,VALID,22.6282,VALID,51,VALID,1.07695,
2011-11-27, 02:27:05,VALID,995.898,VALID,0,VALID,94.47,VALID,0,VALID,22.5696,VALID,56,VALID,1.01094,
2011-11-27, 02:28:05,VALID,995.924,VALID,0,VALID,94.4318,VALID,0,VALID,22.5696,VALID,61,VALID,0.826172,
2011-11-27, 02:29:05,VALID,995.957,VALID,0,VALID,94.4394,VALID,0,VALID,22.5501,VALID,61,VALID,0.948047,
2011-11-27, 02:30:05,VALID,995.965,VALID,0,VALID,94.4394,VALID,0,VALID,22.5714,VALID,61,VALID,0.975,
2011-11-27, 02:31:05,VALID,995.96,VALID,0,VALID,94.4394,VALID,0,VALID,22.5519,VALID,62,VALID,1.05234,
2011-11-27, 02:32:05,VALID,995.995,VALID,0,VALID,94.4165,VALID,0,VALID,22.4916,VALID,74,VALID,0.926562,
2011-11-27, 02:33:05,VALID,996.004,VALID,0,VALID,94.4013,VALID,0,VALID,22.4916,VALID,74,VALID,1.01875,
2011-11-27, 02:34:05,VALID,996.01,VALID,0,VALID,94.4013,VALID,0,VALID,22.4526,VALID,74,VALID,0.769922,
2011-11-27, 02:35:05,VALID,996.033,VALID,0,VALID,94.386,VALID,0,VALID,22.4331,VALID,74,VALID,0.642187,
2011-11-27, 02:36:05,VALID,996.06,VALID,0,VALID,94.3708,VALID,0,VALID,22.4136,VALID,74,VALID,0.608594,
2011-11-27, 02:37:05,VALID,996.07,VALID,0,VALID,94.3555,VALID,0,VALID,22.4348,VALID,74,VALID,0.740625,
2011-11-27, 02:38:05,VALID,996.066,VALID,0,VALID,94.3479,VALID,0,VALID,22.4153,VALID,67,VALID,0.831641,
2011-11-27, 02:39:05,VALID,996.065,VALID,0,VALID,94.3479,VALID,0,VALID,22.3729,VALID,55,VALID,0.635156,
2011-11-27, 02:40:05,VALID,996.064,VALID,0,VALID,94.3403,VALID,0.104696,VALID,22.3339,VALID,37,VALID,0.742578,
2011-11-27, 02:41:05,VALID,996.055,VALID,0,VALID,94.3403,VALID,0,VALID,22.3144,VALID,17,VALID,0.898828,
2011-11-27, 02:42:05,VALID,996.052,VALID,0,VALID,94.3326,VALID,0,VALID,22.3144,VALID,6,VALID,0.960547,
2011-11-27, 02:43:05,VALID,996.107,VALID,0,VALID,94.3403,VALID,0,VALID,22.2949,VALID,7,VALID,0.966016,
2011-11-27, 02:44:05,VALID,996.08,VALID,0,VALID,94.3631,VALID,0,VALID,22.2771,VALID,7,VALID,1.11563,
2011-11-27, 02:45:05,VALID,996.068,VALID,0,VALID,94.3555,VALID,0,VALID,22.2559,VALID,7,VALID,1.01875,
2011-11-27, 02:46:05,VALID,996.073,VALID,0,VALID,94.3708,VALID,0,VALID,22.2559,VALID,7,VALID,0.982031,
2011-11-27, 02:47:05,VALID,996.089,VALID,0,VALID,94.386,VALID,0,VALID,22.2364,VALID,7,VALID,0.919531,
2011-11-27, 02:48:05,VALID,996.068,VALID,0,VALID,94.386,VALID,0.104696,VALID,22.2559,VALID,7,VALID,0.971484,
2011-11-27, 02:49:05,VALID,996.047,VALID,0,VALID,94.3937,VALID,0,VALID,22.2364,VALID,7,VALID,1.0207,
2011-11-27, 02:50:05,VALID,996.078,VALID,0,VALID,94.3784,VALID,0,VALID,22.2169,VALID,7,VALID,0.991797,
2011-11-27, 02:51:05,VALID,996.062,VALID,0,VALID,94.3937,VALID,0,VALID,22.1974,VALID,7,VALID,0.842578,
2011-11-27, 02:52:05,VALID,996.041,VALID,0,VALID,94.4089,VALID,0.104696,VALID,22.199,VALID,24,VALID,1.09219,
2011-11-27, 02:53:05,VALID,996.028,VALID,0,VALID,94.4089,VALID,0.104696,VALID,22.1974,VALID,26,VALID,1.29258,
2011-11-27, 02:54:05,VALID,996.026,VALID,0,VALID,94.4242,VALID,0,VALID,22.1974,VALID,27,VALID,1.57773,
2011-11-27, 02:55:05,VALID,996.022,VALID,0,VALID,94.4089,VALID,0,VALID,22.1974,VALID,18,VALID,1.68633,
2011-11-27, 02:56:05,VALID,996.034,VALID,0,VALID,94.4165,VALID,0,VALID,22.2186,VALID,15,VALID,1.1707,
2011-11-27, 02:57:05,VALID,996.029,VALID,0,VALID,94.4089,VALID,0,VALID,22.1779,VALID,16,VALID,0.402344,
2011-11-27, 02:58:05,VALID,995.951,VALID,0,VALID,94.4165,VALID,0,VALID,22.1584,VALID,16,VALID,0.633594,
2011-11-27, 02:59:05,VALID,995.959,VALID,0,VALID,94.4242,VALID,0,VALID,22.16,VALID,16,VALID,1.06445,
2011-11-27, 03:00:05,VALID,995.901,VALID,0,VALID,94.4242,VALID,0,VALID,22.199,VALID,21,VALID,1.47031,
2011-11-27, 03:01:05,VALID,995.886,VALID,0,VALID,94.4394,VALID,0,VALID,22.1779,VALID,28,VALID,1.70039,
2011-11-27, 03:02:05,VALID,995.91,VALID,0,VALID,94.4318,VALID,0,VALID,22.1584,VALID,23,VALID,1.28906,
2011-11-27, 03:03:05,VALID,995.966,VALID,0,VALID,94.4318,VALID,0,VALID,22.16,VALID,5,VALID,0.607813,
2011-11-27, 03:04:05,VALID,996.005,VALID,0,VALID,94.4547,VALID,0,VALID,22.1584,VALID,5,VALID,0.116797,
2011-11-27, 03:05:05,VALID,995.973,VALID,0,VALID,94.4394,VALID,0.104696,VALID,22.2186,VALID,313,VALID,0.700391,
2011-11-27, 03:06:05,VALID,995.997,VALID,0,VALID,94.4318,VALID,0.104696,VALID,22.2364,VALID,298,VALID,0.00585938,
2011-11-27, 03:07:05,VALID,995.959,VALID,0,VALID,94.4394,VALID,0,VALID,22.2381,VALID,298,VALID,0,
2011-11-27, 03:08:05,VALID,995.942,VALID,0,VALID,94.4623,VALID,0,VALID,22.2576,VALID,308,VALID,0.222266,
2011-11-27, 03:09:05,VALID,995.934,VALID,0,VALID,94.4471,VALID,0,VALID,22.2771,VALID,7,VALID,1.08125,
2011-11-27, 03:10:05,VALID,995.912,VALID,0,VALID,94.4623,VALID,0,VALID,22.3178,VALID,7,VALID,0.708984,
2011-11-27, 03:11:05,VALID,995.927,VALID,0,VALID,94.4471,VALID,0,VALID,22.2771,VALID,7,VALID,0.415234,
2011-11-27, 03:12:05,VALID,995.911,VALID,0,VALID,94.47,VALID,0,VALID,22.2771,VALID,7,VALID,0.353125,
2011-11-27, 03:13:05,VALID,995.927,VALID,0,VALID,94.4852,VALID,0,VALID,22.2576,VALID,7,VALID,0.441406,
2011-11-27, 03:14:05,VALID,995.916,VALID,0,VALID,94.47,VALID,0,VALID,22.2186,VALID,7,VALID,0.564453,
2011-11-27, 03:15:05,VALID,995.95,VALID,0,VALID,94.4776,VALID,0,VALID,22.1795,VALID,7,VALID,0.514063,
2011-11-27, 03:16:05,VALID,995.938,VALID,0,VALID,94.47,VALID,0,VALID,22.1795,VALID,7,VALID,0.488672,
2011-11-27, 03:17:05,VALID,995.942,VALID,0,VALID,94.4623,VALID,0,VALID,22.1795,VALID,7,VALID,0.507031,
2011-11-27, 03:18:05,VALID,995.964,VALID,0,VALID,94.4623,VALID,0,VALID,22.1795,VALID,7,VALID,0.587891,
2011-11-27, 03:19:05,VALID,995.954,VALID,0,VALID,94.4776,VALID,0,VALID,22.1795,VALID,7,VALID,0.579687,
2011-11-27, 03:20:05,VALID,995.957,VALID,0,VALID,94.47,VALID,0,VALID,22.2186,VALID,126,VALID,0.560547,
2011-11-27, 03:21:05,VALID,995.921,VALID,0,VALID,94.4547,VALID,0,VALID,22.2381,VALID,126,VALID,0.252734,
2011-11-27, 03:22:05,VALID,995.92,VALID,0,VALID,94.4776,VALID,0,VALID,22.2186,VALID,126,VALID,0.205469,
2011-11-27, 03:23:05,VALID,995.952,VALID,0,VALID,94.4776,VALID,0,VALID,22.2202,VALID,126,VALID,0.379687,
2011-11-27, 03:24:05,VALID,995.972,VALID,0,VALID,94.4547,VALID,0,VALID,22.2788,VALID,153,VALID,1.45117,
2011-11-27, 03:25:05,VALID,995.932,VALID,0,VALID,94.4547,VALID,0,VALID,22.3356,VALID,149,VALID,0.558203,
2011-11-27, 03:26:05,VALID,995.849,VALID,0,VALID,94.4547,VALID,0,VALID,22.3763,VALID,57,VALID,1.14219,
2011-11-27, 03:27:05,VALID,995.871,VALID,0,VALID,94.4547,VALID,0,VALID,22.3746,VALID,60,VALID,1.18867,
2011-11-27, 03:28:05,VALID,995.927,VALID,0,VALID,94.4623,VALID,0,VALID,22.3763,VALID,125,VALID,0.882813,
2011-11-27, 03:29:05,VALID,995.989,VALID,0,VALID,94.4165,VALID,0,VALID,22.3551,VALID,154,VALID,1.05859,
2011-11-27, 03:30:05,VALID,995.988,VALID,0,VALID,94.4242,VALID,0,VALID,22.3941,VALID,148,VALID,1.19219,
2011-11-27, 03:31:05,VALID,995.97,VALID,0,VALID,94.4089,VALID,0,VALID,22.4136,VALID,138,VALID,0.795313,
2011-11-27, 03:32:05,VALID,995.926,VALID,0,VALID,94.3708,VALID,0,VALID,22.4348,VALID,106,VALID,0.951563,
2011-11-27, 03:33:05,VALID,995.922,VALID,0,VALID,94.3708,VALID,0,VALID,22.4721,VALID,76,VALID,1.39648,
2011-11-27, 03:34:05,VALID,995.949,VALID,0,VALID,94.325,VALID,0,VALID,22.5111,VALID,97,VALID,1.99336,
2011-11-27, 03:35:05,VALID,995.975,VALID,0,VALID,94.2487,VALID,0,VALID,22.5696,VALID,165,VALID,1.81094,
2011-11-27, 03:36:05,VALID,996.008,VALID,0,VALID,94.1724,VALID,0,VALID,22.6477,VALID,191,VALID,2.15391,
2011-11-27, 03:37:05,VALID,995.976,VALID,0,VALID,94.1114,VALID,0,VALID,22.786,VALID,184,VALID,2.34883,
2011-11-27, 03:38:05,VALID,995.904,VALID,0,VALID,93.8901,VALID,0,VALID,23.0201,VALID,179,VALID,1.49258,
2011-11-27, 03:39:05,VALID,995.932,VALID,0,VALID,93.3637,VALID,0,VALID,23.1566,VALID,105,VALID,1.20859,
2011-11-27, 03:40:05,VALID,995.957,VALID,0,VALID,92.6999,VALID,0,VALID,23.1744,VALID,102,VALID,1.07148,
2011-11-27, 03:41:05,VALID,995.978,VALID,0,VALID,92.12,VALID,0,VALID,23.1762,VALID,102,VALID,0.567969,
2011-11-27, 03:42:05,VALID,995.99,VALID,0,VALID,91.8072,VALID,0,VALID,23.1159,VALID,102,VALID,0.246484,
2011-11-27, 03:43:05,VALID,995.991,VALID,0,VALID,91.6088,VALID,0,VALID,23.0378,VALID,102,VALID,0,
2011-11-27, 03:44:05,VALID,995.976,VALID,0,VALID,91.4639,VALID,0,VALID,22.9988,VALID,102,VALID,0,
2011-11-27, 03:45:05,VALID,996.005,VALID,0,VALID,91.441,VALID,0,VALID,22.9598,VALID,102,VALID,0,
2011-11-27, 03:46:05,VALID,996.018,VALID,0,VALID,91.4791,VALID,0,VALID,22.9225,VALID,102,VALID,0.000390625,
2011-11-27, 03:47:05,VALID,996.028,VALID,0,VALID,91.6317,VALID,0,VALID,22.8835,VALID,146,VALID,0.927734,
2011-11-27, 03:48:05,VALID,996.029,VALID,0,VALID,91.853,VALID,0,VALID,22.8623,VALID,170,VALID,1.73203,